ATLAS 5 CENTAUR DEB, 46668

Orbit data source: Space-Track

ATLAS 5 CENTAUR DEB, 46668 is space debris in HEO originally from a launch on Wed, 17 Oct 2018 UTC launched from the Air Force Eastern Test Range (AFETR). Debris objects in space refer to the collection of defunct objects orbiting the Earth. Examples of debris include non-operational satellites, rocket bodies, and fragments generated from explosions, collisions, or faulty payload assembly.

Loading next visibility...
Identifier
46668, 2018-079CW
Orbit
HEO
Last TLE update
1 day ago
Origin
Flag of USUnited Launch Alliance/Lockheed Martin (US)
Manufacturer
ULA Decatur
Mission
Spacecraft
Bus & Motor
Unknown
Mass
Unknown
Launch date (UTC)
2018-10-17 (7 years ago)
Launch vehicle
Unknown
Launch site
Air Force Eastern Test Range (AFETR)
Object type
Payload
Rocket body
Debris
Shape & HBR
Unknown
Radar Cross Section
RCS unknown

Expand to show TLE details & history

TLE from 1 day ago
0 ATLAS 5 CENTAUR DEB
1 46668U 18079CW  25200.07282429 -.00000150  00000-0  00000-0 0  9995
2 46668  12.8866  62.3614 4642820 264.5123  42.6840  1.83684648 32056
Epoch: 2025-07-19T01:44Z
TLE epoch observation values (Epoch: 2025-07-19T01:44:52.018Z)
Latitude
0.00002°
Longitude
99.05947°
Altitude
16,759.532 km
Speed
4.506 km/s
True Right ascension
04h 09m 33s
True Declination
0° 00' 00"
Sunlit
Object was in daylight at epoch
Visualization orbit readout
Latitude
12.85091°
Longitude
-165.50922°
Altitude
34,243.668 km
Speed
2.339 km/s
Apparent Right ascension
10h 32m 22s
Apparent Declination
6° 21' 12"
Sunlit
Object is in daylight
Visualization observer readout
Local Sidereal Time
22:41:11
Azimuth
3.028° NNE
Elevation
-43.686°
Doppler factor
1
Orbital elements
Apogee altitude
34,864.242 km
Perigee altitude
8,710.681 km
Semi-major axis
28,165.599 km
Eccentricity
0.46428
Inclination
12.8866°
RAAN
62.3614°
Arg. of periapsis
264.5123°
True anomaly
95.38023°
Mean anomaly
42.684°
Eccentric anomaly
67.20835°
Mean motion
0.45916 °/min
Orbital period
784.04 mins
BSTAR
0
Loading maneuver chart data...
Loading SW <> Apogee altitude chart data...
|